Tracking 26922 objects as of 1-Feb-2023
HD Live streaming from Space Station
objects crossing your sky now

COSMOS 886 DEB

Track COSMOS 886 DEB now!
10-day predictions


NORAD ID: 19112
Int'l Code: 1976-126BZ
Perigee: 489.0 km
Apogee: 1,922.5 km
Inclination: 65.8 °
Period: 109.4 minutes
Semi major axis: 7576 km
RCS: 0.0045 m2 (small)
Launch date: December 27, 1976
Source: Commonwealth of Independent States (former USSR) (CIS)
Launch site: TYURATAM MISSILE AND SPACE COMPLEX (TTMTR)

Note: This is SATELLITE DEBRIS
Your satellite tracking list
Your tracking list is empty




NASA's NSSDC Master Catalog

Two Line Element Set (TLE):
1 19112U 76126BZ  23030.04277198  .00002293  00000-0  53253-3 0  9999
2 19112  65.8276 320.9147 0945950 289.0489  61.0491 13.16365241397156
Source of the keplerian elements: AFSPC